Tracking 19242 objects as of 16-Aug-2018
HD Live streaming from Space Station
objects crossing your sky now

XSS 10

Track XSS 10 now!
10-day predictions
XSS 10 is classified as:


NORAD ID: 27664
Int'l Code: 2003-005B
Perigee: 516.4 km
Apogee: 763.7 km
Inclination: 39.7 °
Period: 97.4 minutes
Semi major axis: 7011 km
RCS: 0.183 m2 (medium)
Launch date: January 29, 2003
Source: United States (US)
Launch site: AIR FORCE EASTERN TEST RANGE (AFETR)
aabbcc
Your satellite tracking list
Your tracking list is empty




NASA's NSSDC Master Catalog

Two Line Element Set (TLE):
1 27664U 03005B   18228.01002558  .00000044  00000-0  20347-4 0  9993
2 27664  39.7492  97.6477 0176312 125.3921 236.3472 14.78863693838049
Source of the keplerian elements: AFSPC